Location: Colle Santa Colomba
(42.0333°N, 12.5667°E)
Time: 03:51:45
(UTC+00:00)

Cosmos 332 Rocket - Pass Details

Date: 25 October 2021
Orbit: 682 x 703 km, 74.0° (Epoch: 28 November)

Event Time Altitude Azimuth Distance (km) Brightness Sun altitude
Rises 16:39:03 0° 177° (S) 3,072 7.3 -5.5°
Reaches altitude 10° 16:41:28 10° 170° (S) 2,157 6.4 -6.0°
Maximum altitude 16:45:58 38° 103° (ESE) 1,056 4.3 -6.8°
Drops below altitude 10° 16:50:28 10° 35° (NE) 2,162 5.9 -7.6°
Sets 16:52:54 0° 28° (NNE) 3,080 6.8 -8.1°
